Overview Statistics Trail Chart Weather Telemetry Raw packets
 

This is the latest recevied weather packets stored in our database for station/object N6GPM. If no packets are shown the sender has not sent any weather packets the latest 10 day(s).

<< 28 29 30 31 32 33 34 >>
Time Temp. Humidity Pressure Rain* Wind** Luminosity Snow
1788485451 23.89° C 52% 1015.7 hPa 0 mm - 50 W/m² -
1788485151 23.89° C 51% 1015.5 hPa 0 mm - 58 W/m² -
1788484850 24.44° C 50% 1015.6 hPa 0 mm - 68 W/m² -
1788484544 24.44° C 49% 1015.5 hPa 0 mm - 78 W/m² -
1788484259 24.44° C 50% 1015.5 hPa 0 mm - 91 W/m² -
1788483936 24.44° C 50% 1015.4 hPa 0 mm - 100 W/m² -
1788483632 25° C 49% 1015.5 hPa 0 mm - 111 W/m² -
1788483332 24.44° C 50% 1015.4 hPa 0 mm - 123 W/m² -
1788483027 25° C 50% 1015.3 hPa 0 mm - 137 W/m² -
1788482723 25° C 50% 1015.4 hPa 0 mm - 154 W/m² -
1788482423 25° C 49% 1015.4 hPa 0 mm - 175 W/m² -
1788482119 25.56° C 48% 1015.5 hPa 0 mm - 197 W/m² -
1788481814 25.56° C 48% 1015.4 hPa 0 mm - 220 W/m² -
1788481510 25.56° C 48% 1015.3 hPa 0 mm - 241 W/m² -
1788481209 25.56° C 49% 1015.5 hPa 0 mm - 259 W/m² -
1788480905 25.56° C 48% 1015.6 hPa 0 mm - 281 W/m² -
1788480599 26.11° C 47% 1015.4 hPa 0 mm - 302 W/m² -
1788480298 26.11° C 47% 1015.3 hPa 0 mm - 321 W/m² -
1788479994 26.67° C 47% 1015.4 hPa 0 mm - 342 W/m² -
1788479690 26.11° C 46% 1015.3 hPa 0 mm - 362 W/m² -
1788479389 26.67° C 46% 1015.7 hPa 0 mm - 384 W/m² -
1788479085 26.67° C 45% 1015.6 hPa 0 mm - 402 W/m² -
1788478781 26.67° C 45% 1015.8 hPa 0 mm - 426 W/m² -
1788478477 27.22° C 44% 1015.7 hPa 0 mm - 448 W/m² -
1788478174 27.78° C 42% 1015.6 hPa 0 mm - 471 W/m² -

* Rain latest hour (hover to see other rain measurements)
** Current wind speed in m/s (hover to see current wind gust speed)